Year,Month,Day,Hour,Minute,Value (Times are PST for temperature in C)
2021,06,30,00,00,17.70
2021,06,30,00,01,17.80
2021,06,30,00,02,17.90
2021,06,30,00,03,17.90
2021,06,30,00,04,18.00
2021,06,30,00,05,18.00
2021,06,30,00,06,18.10
2021,06,30,00,07,18.10
2021,06,30,00,08,18.10
2021,06,30,00,09,18.10
2021,06,30,00,10,18.10
2021,06,30,00,11,18.10
2021,06,30,00,12,18.10
2021,06,30,00,13,18.10
2021,06,30,00,14,18.10
2021,06,30,00,15,18.10
2021,06,30,00,16,18.10
2021,06,30,00,17,18.10
2021,06,30,00,18,18.10
2021,06,30,00,19,18.00
2021,06,30,00,20,18.00
2021,06,30,00,21,18.00
2021,06,30,00,22,18.00
2021,06,30,00,23,17.90
2021,06,30,00,24,17.90
2021,06,30,00,25,17.90
2021,06,30,00,26,17.90
2021,06,30,00,27,17.90
2021,06,30,00,28,17.90
2021,06,30,00,29,17.80
2021,06,30,00,30,17.80
2021,06,30,00,31,17.80
2021,06,30,00,32,17.80
2021,06,30,00,33,17.80
2021,06,30,00,34,17.70
2021,06,30,00,35,17.70
2021,06,30,00,36,17.70
2021,06,30,00,37,17.70
2021,06,30,00,38,17.70
2021,06,30,00,39,17.70
2021,06,30,00,40,17.60
2021,06,30,00,41,17.60
2021,06,30,00,42,17.60
2021,06,30,00,43,17.60
2021,06,30,00,44,17.50
2021,06,30,00,45,17.50
2021,06,30,00,46,17.50
2021,06,30,00,47,17.40
2021,06,30,00,48,17.40
2021,06,30,00,49,17.40
2021,06,30,00,50,17.30
2021,06,30,00,51,17.30
2021,06,30,00,52,17.30
2021,06,30,00,53,17.30
2021,06,30,00,54,17.30
2021,06,30,00,55,17.20
2021,06,30,00,56,17.20
2021,06,30,00,57,17.20
2021,06,30,00,58,17.20
2021,06,30,00,59,17.20
2021,06,30,01,00,17.10
2021,06,30,01,01,17.10
2021,06,30,01,02,17.10
2021,06,30,01,03,17.10
2021,06,30,01,04,17.10
2021,06,30,01,05,17.10
2021,06,30,01,06,17.00
2021,06,30,01,07,17.00
2021,06,30,01,08,16.90
2021,06,30,01,09,16.90
2021,06,30,01,10,16.90
2021,06,30,01,11,16.90
2021,06,30,01,12,16.90
2021,06,30,01,13,16.80
2021,06,30,01,14,16.80
2021,06,30,01,15,16.80
2021,06,30,01,16,16.80
2021,06,30,01,17,16.80
2021,06,30,01,18,16.80
2021,06,30,01,19,16.80
2021,06,30,01,20,16.80
2021,06,30,01,21,16.80
2021,06,30,01,22,16.90
2021,06,30,01,23,16.90
2021,06,30,01,24,16.90
2021,06,30,01,25,16.80
2021,06,30,01,26,16.80
2021,06,30,01,27,16.90
2021,06,30,01,28,16.90
2021,06,30,01,29,16.90
2021,06,30,01,30,16.90
2021,06,30,01,31,16.90
2021,06,30,01,32,16.90
2021,06,30,01,33,16.90
2021,06,30,01,34,16.90
2021,06,30,01,35,16.90
2021,06,30,01,36,16.90
2021,06,30,01,37,16.80
2021,06,30,01,38,16.80
2021,06,30,01,39,16.80
2021,06,30,01,40,16.70
2021,06,30,01,41,16.70
2021,06,30,01,42,16.70
2021,06,30,01,43,16.60
2021,06,30,01,44,16.60
2021,06,30,01,45,16.60
2021,06,30,01,46,16.50
2021,06,30,01,47,16.50
2021,06,30,01,48,16.40
2021,06,30,01,49,16.40
2021,06,30,01,50,16.40
2021,06,30,01,51,16.40
2021,06,30,01,52,16.40
2021,06,30,01,53,16.30
2021,06,30,01,54,16.30
2021,06,30,01,55,16.30
2021,06,30,01,56,16.30
2021,06,30,01,57,16.20
2021,06,30,01,58,16.20
2021,06,30,01,59,16.20
2021,06,30,02,00,16.20
2021,06,30,02,01,16.10
2021,06,30,02,02,16.10
2021,06,30,02,03,16.10
2021,06,30,02,04,16.10
2021,06,30,02,05,16.10
2021,06,30,02,06,16.00
2021,06,30,02,07,16.00
2021,06,30,02,08,16.00
2021,06,30,02,09,15.90
2021,06,30,02,10,15.90
2021,06,30,02,11,15.90
2021,06,30,02,12,15.90
2021,06,30,02,13,15.90
2021,06,30,02,14,15.80
2021,06,30,02,15,15.80
2021,06,30,02,16,15.80
2021,06,30,02,17,15.80
2021,06,30,02,18,15.80
2021,06,30,02,19,15.80
2021,06,30,02,20,15.70
2021,06,30,02,21,15.70
2021,06,30,02,22,15.70
2021,06,30,02,23,15.70
2021,06,30,02,24,15.70
2021,06,30,02,25,15.60
2021,06,30,02,26,15.60
2021,06,30,02,27,15.60
2021,06,30,02,28,15.60
2021,06,30,02,29,15.60
2021,06,30,02,30,15.50
2021,06,30,02,31,15.50
2021,06,30,02,32,15.50
2021,06,30,02,33,15.50
2021,06,30,02,34,15.50
2021,06,30,02,35,15.40
2021,06,30,02,36,15.40
2021,06,30,02,37,15.40
2021,06,30,02,38,15.40
2021,06,30,02,39,15.40
2021,06,30,02,40,15.40
2021,06,30,02,41,15.40
2021,06,30,02,42,15.40
2021,06,30,02,43,15.40
2021,06,30,02,44,15.40
2021,06,30,02,45,15.40
2021,06,30,02,46,15.40
2021,06,30,02,47,15.40
2021,06,30,02,48,15.40
2021,06,30,02,49,15.40
2021,06,30,02,50,15.40
2021,06,30,02,51,15.30
2021,06,30,02,52,15.30
2021,06,30,02,53,15.30
2021,06,30,02,54,15.30
2021,06,30,02,55,15.30
2021,06,30,02,56,15.30
2021,06,30,02,57,15.30
2021,06,30,02,58,15.40
2021,06,30,02,59,15.40
2021,06,30,03,00,15.40
2021,06,30,03,01,15.40
2021,06,30,03,02,15.40
2021,06,30,03,03,15.40
2021,06,30,03,04,15.40
2021,06,30,03,05,15.40
2021,06,30,03,06,15.40
2021,06,30,03,07,15.40
2021,06,30,03,08,15.40
2021,06,30,03,09,15.40
2021,06,30,03,10,15.40
2021,06,30,03,11,15.40
2021,06,30,03,12,15.40
2021,06,30,03,13,15.40
2021,06,30,03,14,15.40
2021,06,30,03,15,15.40
2021,06,30,03,16,15.40
2021,06,30,03,17,15.40
2021,06,30,03,18,15.40
2021,06,30,03,19,15.40
2021,06,30,03,20,15.40
2021,06,30,03,21,15.40
2021,06,30,03,22,15.40
2021,06,30,03,23,15.40
2021,06,30,03,24,15.40
2021,06,30,03,25,15.40
2021,06,30,03,26,15.40
2021,06,30,03,27,15.40
2021,06,30,03,28,15.40
2021,06,30,03,29,15.40
2021,06,30,03,30,15.30
2021,06,30,03,31,15.30
2021,06,30,03,32,15.30
2021,06,30,03,33,15.30
2021,06,30,03,34,15.30
2021,06,30,03,35,15.30
2021,06,30,03,36,15.30
2021,06,30,03,37,15.30
2021,06,30,03,38,15.30
2021,06,30,03,39,15.30
2021,06,30,03,40,15.30
2021,06,30,03,41,15.30
2021,06,30,03,42,15.40
2021,06,30,03,43,15.40
2021,06,30,03,44,15.40
2021,06,30,03,45,15.40
2021,06,30,03,46,15.40
2021,06,30,03,47,15.40
2021,06,30,03,48,15.40
2021,06,30,03,49,15.40
2021,06,30,03,50,15.40
2021,06,30,03,51,15.30
2021,06,30,03,52,15.30
2021,06,30,03,53,15.30
2021,06,30,03,54,15.30
2021,06,30,03,55,15.30
2021,06,30,03,56,15.30
2021,06,30,03,57,15.30
2021,06,30,03,58,15.30
2021,06,30,03,59,15.30
2021,06,30,04,00,15.30
2021,06,30,04,01,15.30
2021,06,30,04,02,15.20
2021,06,30,04,03,15.20
2021,06,30,04,04,15.20
2021,06,30,04,05,15.20
2021,06,30,04,06,15.20
2021,06,30,04,07,15.20
2021,06,30,04,08,15.20
2021,06,30,04,09,15.10
2021,06,30,04,10,15.10
2021,06,30,04,11,15.10
2021,06,30,04,12,15.10
2021,06,30,04,13,15.10
2021,06,30,04,14,15.10
2021,06,30,04,15,15.10
2021,06,30,04,16,15.00
2021,06,30,04,17,15.00
2021,06,30,04,18,15.00
2021,06,30,04,19,15.00
2021,06,30,04,20,15.00
2021,06,30,04,21,15.00
2021,06,30,04,22,14.90
2021,06,30,04,23,14.90
2021,06,30,04,24,14.90
2021,06,30,04,25,14.90
2021,06,30,04,26,14.90
2021,06,30,04,27,14.90
2021,06,30,04,28,14.90
2021,06,30,04,29,14.90
2021,06,30,04,30,14.90
2021,06,30,04,31,14.90
2021,06,30,04,32,14.90
2021,06,30,04,33,14.90
2021,06,30,04,34,14.90
2021,06,30,04,35,14.90
2021,06,30,04,36,14.90
2021,06,30,04,37,14.90
2021,06,30,04,38,14.90
2021,06,30,04,39,14.80
2021,06,30,04,40,14.80
2021,06,30,04,41,14.80
2021,06,30,04,42,14.80
2021,06,30,04,43,14.80
2021,06,30,04,44,14.80
2021,06,30,04,45,14.80
2021,06,30,04,46,14.80
2021,06,30,04,47,14.80
2021,06,30,04,48,14.80
2021,06,30,04,49,14.70
2021,06,30,04,50,14.70
2021,06,30,04,51,14.70
2021,06,30,04,52,14.70
2021,06,30,04,53,14.70
2021,06,30,04,54,14.70
2021,06,30,04,55,14.70
2021,06,30,04,56,14.60
2021,06,30,04,57,14.60
2021,06,30,04,58,14.60
2021,06,30,04,59,14.60
2021,06,30,05,00,14.60
2021,06,30,05,01,14.60
2021,06,30,05,02,14.60
2021,06,30,05,03,14.50
2021,06,30,05,04,14.50
2021,06,30,05,05,14.50
2021,06,30,05,06,14.50
2021,06,30,05,07,14.50
2021,06,30,05,08,14.40
2021,06,30,05,09,14.40
2021,06,30,05,10,14.40
2021,06,30,05,11,14.40
2021,06,30,05,12,14.40
2021,06,30,05,13,14.40
2021,06,30,05,14,14.40
2021,06,30,05,15,14.40
2021,06,30,05,16,14.40
2021,06,30,05,17,14.40
2021,06,30,05,18,14.40
2021,06,30,05,19,14.40
2021,06,30,05,20,14.40
2021,06,30,05,21,14.40
2021,06,30,05,22,14.40
2021,06,30,05,23,14.40
2021,06,30,05,24,14.40
2021,06,30,05,25,14.40
2021,06,30,05,26,14.40
2021,06,30,05,27,14.40
2021,06,30,05,28,14.40
2021,06,30,05,29,14.30
2021,06,30,05,30,14.30
2021,06,30,05,31,14.30
2021,06,30,05,32,14.30
2021,06,30,05,33,14.40
2021,06,30,05,34,14.40
2021,06,30,05,35,14.40
2021,06,30,05,36,14.40
2021,06,30,05,37,14.40
2021,06,30,05,38,14.40
2021,06,30,05,39,14.40
2021,06,30,05,40,14.40
2021,06,30,05,41,14.40
2021,06,30,05,42,14.40
2021,06,30,05,43,14.40
2021,06,30,05,44,14.40
2021,06,30,05,45,14.40
2021,06,30,05,46,14.40
2021,06,30,05,47,14.40
2021,06,30,05,48,14.40
2021,06,30,05,49,14.50
2021,06,30,05,50,14.50
2021,06,30,05,51,14.50
2021,06,30,05,52,14.50
2021,06,30,05,53,14.50
2021,06,30,05,54,14.50
2021,06,30,05,55,14.60
2021,06,30,05,56,14.60
2021,06,30,05,57,14.60
2021,06,30,05,58,14.60
2021,06,30,05,59,14.60
2021,06,30,06,00,14.60
2021,06,30,06,01,14.60
2021,06,30,06,02,14.70
2021,06,30,06,03,14.70
2021,06,30,06,04,14.70
2021,06,30,06,05,14.70
2021,06,30,06,06,14.70
2021,06,30,06,07,14.70
2021,06,30,06,08,14.70
2021,06,30,06,09,14.70
2021,06,30,06,10,14.80
2021,06,30,06,11,14.80
2021,06,30,06,12,14.80
2021,06,30,06,13,14.80
2021,06,30,06,14,14.80
2021,06,30,06,15,14.80
2021,06,30,06,16,14.80
2021,06,30,06,17,14.80
2021,06,30,06,18,14.90
2021,06,30,06,19,14.90
2021,06,30,06,20,14.90
2021,06,30,06,21,15.00
2021,06,30,06,22,15.00
2021,06,30,06,23,15.00
2021,06,30,06,24,15.10
2021,06,30,06,25,15.10
2021,06,30,06,26,15.20
2021,06,30,06,27,15.20
2021,06,30,06,28,15.30
2021,06,30,06,29,15.30
2021,06,30,06,30,15.40
2021,06,30,06,31,15.50
2021,06,30,06,32,15.60
2021,06,30,06,33,15.70
2021,06,30,06,34,15.80
2021,06,30,06,35,15.80
2021,06,30,06,36,15.90
2021,06,30,06,37,16.00
2021,06,30,06,38,16.10
2021,06,30,06,39,16.20
2021,06,30,06,40,16.30
2021,06,30,06,41,16.40
2021,06,30,06,42,16.50
2021,06,30,06,43,16.60
2021,06,30,06,44,16.70
2021,06,30,06,45,16.80
2021,06,30,06,46,16.80
2021,06,30,06,47,16.90
2021,06,30,06,48,17.00
2021,06,30,06,49,17.10
2021,06,30,06,50,17.10
2021,06,30,06,51,17.20
2021,06,30,06,52,17.30
2021,06,30,06,53,17.40
2021,06,30,06,54,17.40
2021,06,30,06,55,17.50
2021,06,30,06,56,17.60
2021,06,30,06,57,17.70
2021,06,30,06,58,17.70
2021,06,30,06,59,17.70
2021,06,30,07,00,17.80
2021,06,30,07,01,17.80
2021,06,30,07,02,17.90
2021,06,30,07,03,17.90
2021,06,30,07,04,18.00
2021,06,30,07,05,18.10
2021,06,30,07,06,18.10
2021,06,30,07,07,18.20
2021,06,30,07,08,18.20
2021,06,30,07,09,18.20
2021,06,30,07,10,18.30
2021,06,30,07,11,18.30
2021,06,30,07,12,18.30
2021,06,30,07,13,18.40
2021,06,30,07,14,18.50
2021,06,30,07,15,18.50
2021,06,30,07,16,18.50
2021,06,30,07,17,18.60
2021,06,30,07,18,18.60
2021,06,30,07,19,18.60
2021,06,30,07,20,18.60
2021,06,30,07,21,18.60
2021,06,30,07,22,18.60
2021,06,30,07,23,18.60
2021,06,30,07,24,18.60
2021,06,30,07,25,18.60
2021,06,30,07,26,18.60
2021,06,30,07,27,18.60
2021,06,30,07,28,18.70
2021,06,30,07,29,18.70
2021,06,30,07,30,18.80
2021,06,30,07,31,18.80
2021,06,30,07,32,18.80
2021,06,30,07,33,18.90
2021,06,30,07,34,18.90
2021,06,30,07,35,18.90
2021,06,30,07,36,18.90
2021,06,30,07,37,18.90
2021,06,30,07,38,18.90
2021,06,30,07,39,18.90
2021,06,30,07,40,18.90
2021,06,30,07,41,19.00
2021,06,30,07,42,19.00
2021,06,30,07,43,19.00
2021,06,30,07,44,19.00
2021,06,30,07,45,19.00
2021,06,30,07,46,19.00
2021,06,30,07,47,18.90
2021,06,30,07,48,18.90
2021,06,30,07,49,18.90
2021,06,30,07,50,18.90
2021,06,30,07,51,18.90
2021,06,30,07,52,18.90
2021,06,30,07,53,18.90
2021,06,30,07,54,19.00
2021,06,30,07,55,19.00
2021,06,30,07,56,19.00
2021,06,30,07,57,19.00
2021,06,30,07,58,19.00
2021,06,30,07,59,19.00
2021,06,30,08,00,19.10
2021,06,30,08,01,19.10
2021,06,30,08,02,19.10
2021,06,30,08,03,19.20
2021,06,30,08,04,19.20
2021,06,30,08,05,19.20
2021,06,30,08,06,19.20
2021,06,30,08,07,19.30
2021,06,30,08,08,19.30
2021,06,30,08,09,19.40
2021,06,30,08,10,19.40
2021,06,30,08,11,19.40
2021,06,30,08,12,19.40
2021,06,30,08,13,19.50
2021,06,30,08,14,19.50
2021,06,30,08,15,19.60
2021,06,30,08,16,19.50
2021,06,30,08,17,19.60
2021,06,30,08,18,19.50
2021,06,30,08,19,19.60
2021,06,30,08,20,19.60
2021,06,30,08,21,19.70
2021,06,30,08,22,19.70
2021,06,30,08,23,19.80
2021,06,30,08,24,19.80
2021,06,30,08,25,19.80
2021,06,30,08,26,19.80
2021,06,30,08,27,19.80
2021,06,30,08,28,19.90
2021,06,30,08,29,19.90
2021,06,30,08,30,20.00
2021,06,30,08,31,20.00
2021,06,30,08,32,20.10
2021,06,30,08,33,20.20
2021,06,30,08,34,20.30
2021,06,30,08,35,20.30
2021,06,30,08,36,20.40
2021,06,30,08,37,20.50
2021,06,30,08,38,20.60
2021,06,30,08,39,20.60
2021,06,30,08,40,20.70
2021,06,30,08,41,20.70
2021,06,30,08,42,20.80
2021,06,30,08,43,20.80
2021,06,30,08,44,20.80
2021,06,30,08,45,20.70
2021,06,30,08,46,20.70
2021,06,30,08,47,20.70
2021,06,30,08,48,20.70
2021,06,30,08,49,20.60
2021,06,30,08,50,20.70
2021,06,30,08,51,20.70
2021,06,30,08,52,20.80
2021,06,30,08,53,20.80
2021,06,30,08,54,20.90
2021,06,30,08,55,21.00
2021,06,30,08,56,21.10
2021,06,30,08,57,21.10
2021,06,30,08,58,21.10
2021,06,30,08,59,21.20
2021,06,30,09,00,21.20
2021,06,30,09,01,21.20
2021,06,30,09,02,21.30
2021,06,30,09,03,21.30
2021,06,30,09,04,21.40
2021,06,30,09,05,21.40
2021,06,30,09,06,21.40
2021,06,30,09,07,21.40
2021,06,30,09,08,21.40
2021,06,30,09,09,21.40
2021,06,30,09,10,21.40
2021,06,30,09,11,21.40
2021,06,30,09,12,21.40
2021,06,30,09,13,21.40
2021,06,30,09,14,21.40
2021,06,30,09,15,21.40
2021,06,30,09,16,21.40
2021,06,30,09,17,21.40
2021,06,30,09,18,21.40
2021,06,30,09,19,21.40
2021,06,30,09,20,21.40
2021,06,30,09,21,21.40
2021,06,30,09,22,21.30
2021,06,30,09,23,21.30
2021,06,30,09,24,21.30
2021,06,30,09,25,21.30
2021,06,30,09,26,21.30
2021,06,30,09,27,21.30
2021,06,30,09,28,21.30
2021,06,30,09,29,21.30
2021,06,30,09,30,21.30
2021,06,30,09,31,21.30
2021,06,30,09,32,21.40
2021,06,30,09,33,21.40
2021,06,30,09,34,21.40
2021,06,30,09,35,21.40
2021,06,30,09,36,21.40
2021,06,30,09,37,21.40
2021,06,30,09,38,21.40
2021,06,30,09,39,21.40
2021,06,30,09,40,21.30
2021,06,30,09,41,21.30
2021,06,30,09,42,21.30
2021,06,30,09,43,21.30
2021,06,30,09,44,21.40
2021,06,30,09,45,21.40
2021,06,30,09,46,21.40
2021,06,30,09,47,21.50
2021,06,30,09,48,21.50
2021,06,30,09,49,21.60
2021,06,30,09,50,21.60
2021,06,30,09,51,21.60
2021,06,30,09,52,21.60
2021,06,30,09,53,21.60
2021,06,30,09,54,21.70
2021,06,30,09,55,21.70
2021,06,30,09,56,21.70
2021,06,30,09,57,21.70
2021,06,30,09,58,21.70
2021,06,30,09,59,21.70
2021,06,30,10,00,21.70
2021,06,30,10,01,21.70
2021,06,30,10,02,21.70
2021,06,30,10,03,21.70
2021,06,30,10,04,21.70
2021,06,30,10,05,21.70
2021,06,30,10,06,21.70
2021,06,30,10,07,21.70
2021,06,30,10,08,21.60
2021,06,30,10,09,21.60
2021,06,30,10,10,21.70
2021,06,30,10,11,21.70
2021,06,30,10,12,21.70
2021,06,30,10,13,21.80
2021,06,30,10,14,21.80
2021,06,30,10,15,21.80
2021,06,30,10,16,21.80
2021,06,30,10,17,21.80
2021,06,30,10,18,21.80
2021,06,30,10,19,21.80
2021,06,30,10,20,21.90
2021,06,30,10,21,21.90
2021,06,30,10,22,22.00
2021,06,30,10,23,22.10
2021,06,30,10,24,22.10
2021,06,30,10,25,22.20
2021,06,30,10,26,22.20
2021,06,30,10,27,22.30
2021,06,30,10,28,22.30
2021,06,30,10,29,22.30
2021,06,30,10,30,22.30
2021,06,30,10,31,22.40
2021,06,30,10,32,22.40
2021,06,30,10,33,22.40
2021,06,30,10,34,22.40
2021,06,30,10,35,22.40
2021,06,30,10,36,22.50
2021,06,30,10,37,22.50
2021,06,30,10,38,22.40
2021,06,30,10,39,22.50
2021,06,30,10,40,22.50
2021,06,30,10,41,22.60
2021,06,30,10,42,22.60
2021,06,30,10,43,22.70
2021,06,30,10,44,22.70
2021,06,30,10,45,22.80
2021,06,30,10,46,22.80
2021,06,30,10,47,22.90
2021,06,30,10,48,22.90
2021,06,30,10,49,23.00
2021,06,30,10,50,23.00
2021,06,30,10,51,23.10
2021,06,30,10,52,23.10
2021,06,30,10,53,23.10
2021,06,30,10,54,23.20
2021,06,30,10,55,23.20
2021,06,30,10,56,23.20
2021,06,30,10,57,23.20
2021,06,30,10,58,23.20
2021,06,30,10,59,23.20
2021,06,30,11,00,23.20
2021,06,30,11,01,23.20
2021,06,30,11,02,23.30
2021,06,30,11,03,23.30
2021,06,30,11,04,23.30
2021,06,30,11,05,23.40
2021,06,30,11,06,23.40
2021,06,30,11,07,23.50
2021,06,30,11,08,23.40
2021,06,30,11,09,23.40
2021,06,30,11,10,23.40
2021,06,30,11,11,23.40
2021,06,30,11,12,23.50
2021,06,30,11,13,23.50
2021,06,30,11,14,23.60
2021,06,30,11,15,23.60
2021,06,30,11,16,23.60
2021,06,30,11,17,23.60
2021,06,30,11,18,23.70
2021,06,30,11,19,23.70
2021,06,30,11,20,23.70
2021,06,30,11,21,23.70
2021,06,30,11,22,23.70
2021,06,30,11,23,23.70
2021,06,30,11,24,23.70
2021,06,30,11,25,23.70
2021,06,30,11,26,23.70
2021,06,30,11,27,23.70
2021,06,30,11,28,23.80
2021,06,30,11,29,23.80
2021,06,30,11,30,23.90
2021,06,30,11,31,23.90
2021,06,30,11,32,23.90
2021,06,30,11,33,23.90
2021,06,30,11,34,23.90
2021,06,30,11,35,23.90
2021,06,30,11,36,24.00
2021,06,30,11,37,24.00
2021,06,30,11,38,24.00
2021,06,30,11,39,24.00
2021,06,30,11,40,24.10
2021,06,30,11,41,24.10
2021,06,30,11,42,24.10
2021,06,30,11,43,24.20
2021,06,30,11,44,24.10
2021,06,30,11,45,24.10
2021,06,30,11,46,24.10
2021,06,30,11,47,24.10
2021,06,30,11,48,24.10
2021,06,30,11,49,24.10
2021,06,30,11,50,24.10
2021,06,30,11,51,24.20
2021,06,30,11,52,24.10
2021,06,30,11,53,24.10
2021,06,30,11,54,24.10
2021,06,30,11,55,24.10
2021,06,30,11,56,24.20
2021,06,30,11,57,24.10
2021,06,30,11,58,24.10
2021,06,30,11,59,24.10
2021,06,30,12,00,24.10
2021,06,30,12,01,24.10
2021,06,30,12,02,24.10
2021,06,30,12,03,24.10
2021,06,30,12,04,24.10
2021,06,30,12,05,24.10
2021,06,30,12,06,24.10
2021,06,30,12,07,24.20
2021,06,30,12,08,24.30
2021,06,30,12,09,24.40
2021,06,30,12,10,24.40
2021,06,30,12,11,24.40
2021,06,30,12,12,24.50
2021,06,30,12,13,24.60
2021,06,30,12,14,24.70
2021,06,30,12,15,24.70
2021,06,30,12,16,24.70
2021,06,30,12,17,24.80
2021,06,30,12,18,24.90
2021,06,30,12,19,24.90
2021,06,30,12,20,24.90
2021,06,30,12,21,25.00
2021,06,30,12,22,25.10
2021,06,30,12,23,25.10
2021,06,30,12,24,25.10
2021,06,30,12,25,25.10
2021,06,30,12,26,25.10
2021,06,30,12,27,25.10
2021,06,30,12,28,25.10
2021,06,30,12,29,25.10
2021,06,30,12,30,25.00
2021,06,30,12,31,25.00
2021,06,30,12,32,25.00
2021,06,30,12,33,24.90
2021,06,30,12,34,24.90
2021,06,30,12,35,24.80
2021,06,30,12,36,24.80
2021,06,30,12,37,24.80
2021,06,30,12,38,24.80
2021,06,30,12,39,24.80
2021,06,30,12,40,24.80
2021,06,30,12,41,24.80
2021,06,30,12,42,24.80
2021,06,30,12,43,24.70
2021,06,30,12,44,24.70
2021,06,30,12,45,24.70
2021,06,30,12,46,24.60
2021,06,30,12,47,24.60
2021,06,30,12,48,24.60
2021,06,30,12,49,24.60
2021,06,30,12,50,24.60
2021,06,30,12,51,24.60
2021,06,30,12,52,24.50
2021,06,30,12,53,24.50
2021,06,30,12,54,24.40
2021,06,30,12,55,24.40
2021,06,30,12,56,24.30
2021,06,30,12,57,24.20
2021,06,30,12,58,24.20
2021,06,30,12,59,24.10
2021,06,30,13,00,24.00
2021,06,30,13,01,24.00
2021,06,30,13,02,23.90
2021,06,30,13,03,23.90
2021,06,30,13,04,23.90
2021,06,30,13,05,23.80
2021,06,30,13,06,23.80
2021,06,30,13,07,23.80
2021,06,30,13,08,23.70
2021,06,30,13,09,23.60
2021,06,30,13,10,23.50
2021,06,30,13,11,23.50
2021,06,30,13,12,23.40
2021,06,30,13,13,23.40
2021,06,30,13,14,23.30
2021,06,30,13,15,23.30
2021,06,30,13,16,23.30
2021,06,30,13,17,23.30
2021,06,30,13,18,23.40
2021,06,30,13,19,23.40
2021,06,30,13,20,23.40
2021,06,30,13,21,23.40
2021,06,30,13,22,23.40
2021,06,30,13,23,23.40
2021,06,30,13,24,23.40
2021,06,30,13,25,23.50
2021,06,30,13,26,23.50
2021,06,30,13,27,23.50
2021,06,30,13,28,23.40
2021,06,30,13,29,23.40
2021,06,30,13,30,23.40
2021,06,30,13,31,23.40
2021,06,30,13,32,23.40
2021,06,30,13,33,23.40
2021,06,30,13,34,23.50
2021,06,30,13,35,23.50
2021,06,30,13,36,23.60
2021,06,30,13,37,23.60
2021,06,30,13,38,23.60
2021,06,30,13,39,23.60
2021,06,30,13,40,23.70
2021,06,30,13,41,23.70
2021,06,30,13,42,23.70
2021,06,30,13,43,23.70
2021,06,30,13,44,23.70
2021,06,30,13,45,23.70
2021,06,30,13,46,23.70
2021,06,30,13,47,23.80
2021,06,30,13,48,23.80
2021,06,30,13,49,23.80
2021,06,30,13,50,23.90
2021,06,30,13,51,24.00
2021,06,30,13,52,23.90
2021,06,30,13,53,24.00
2021,06,30,13,54,24.00
2021,06,30,13,55,24.00
2021,06,30,13,56,23.90
2021,06,30,13,57,23.90
2021,06,30,13,58,23.80
2021,06,30,13,59,23.80
2021,06,30,14,00,23.90
2021,06,30,14,01,23.90
2021,06,30,14,02,23.90
2021,06,30,14,03,23.90
2021,06,30,14,04,23.90
2021,06,30,14,05,23.90
2021,06,30,14,06,24.00
2021,06,30,14,07,24.00
2021,06,30,14,08,24.00
2021,06,30,14,09,24.10
2021,06,30,14,10,24.10
2021,06,30,14,11,24.10
2021,06,30,14,12,24.10
2021,06,30,14,13,24.20
2021,06,30,14,14,24.20
2021,06,30,14,15,24.20
2021,06,30,14,16,24.20
2021,06,30,14,17,24.30
2021,06,30,14,18,24.30
2021,06,30,14,19,24.30
2021,06,30,14,20,24.40
2021,06,30,14,21,24.30
2021,06,30,14,22,24.40
2021,06,30,14,23,24.30
2021,06,30,14,24,24.40
2021,06,30,14,25,24.30
2021,06,30,14,26,24.30
2021,06,30,14,27,24.30
2021,06,30,14,28,24.30
2021,06,30,14,29,24.20
2021,06,30,14,30,24.20
2021,06,30,14,31,24.10
2021,06,30,14,32,24.10
2021,06,30,14,33,24.00
2021,06,30,14,34,24.00
2021,06,30,14,35,24.10
2021,06,30,14,36,24.00
2021,06,30,14,37,24.00
2021,06,30,14,38,23.90
2021,06,30,14,39,23.90
2021,06,30,14,40,23.90
2021,06,30,14,41,23.90
2021,06,30,14,42,23.90
2021,06,30,14,43,23.90
2021,06,30,14,44,23.90
2021,06,30,14,45,23.90
2021,06,30,14,46,23.80
2021,06,30,14,47,23.80
2021,06,30,14,48,23.80
2021,06,30,14,49,23.80
2021,06,30,14,50,23.80
2021,06,30,14,51,23.80
2021,06,30,14,52,23.90
2021,06,30,14,53,23.90
2021,06,30,14,54,24.00
2021,06,30,14,55,24.00
2021,06,30,14,56,24.10
2021,06,30,14,57,24.10
2021,06,30,14,58,24.10
2021,06,30,14,59,24.10
2021,06,30,15,00,24.10
2021,06,30,15,01,24.20
2021,06,30,15,02,24.10
2021,06,30,15,03,24.20
2021,06,30,15,04,24.20
2021,06,30,15,05,24.20
2021,06,30,15,06,24.10
2021,06,30,15,07,24.00
2021,06,30,15,08,24.00
2021,06,30,15,09,23.90
2021,06,30,15,10,23.90
2021,06,30,15,11,23.90
2021,06,30,15,12,23.90
2021,06,30,15,13,23.90
2021,06,30,15,14,23.90
2021,06,30,15,15,23.90
2021,06,30,15,16,23.90
2021,06,30,15,17,23.90
2021,06,30,15,18,23.90
2021,06,30,15,19,23.80
2021,06,30,15,20,23.80
2021,06,30,15,21,23.90
2021,06,30,15,22,23.90
2021,06,30,15,23,23.90
2021,06,30,15,24,24.00
2021,06,30,15,25,24.10
2021,06,30,15,26,24.10
2021,06,30,15,27,24.10
2021,06,30,15,28,24.10
2021,06,30,15,29,24.20
2021,06,30,15,30,24.30
2021,06,30,15,31,24.30
2021,06,30,15,32,24.30
2021,06,30,15,33,24.30
2021,06,30,15,34,24.30
2021,06,30,15,35,24.30
2021,06,30,15,36,24.30
2021,06,30,15,37,24.30
2021,06,30,15,38,24.30
2021,06,30,15,39,24.30
2021,06,30,15,40,24.20
2021,06,30,15,41,24.20
2021,06,30,15,42,24.20
2021,06,30,15,43,24.10
2021,06,30,15,44,24.10
2021,06,30,15,45,24.10
2021,06,30,15,46,24.00
2021,06,30,15,47,24.00
2021,06,30,15,48,23.90
2021,06,30,15,49,23.90
2021,06,30,15,50,23.90
2021,06,30,15,51,23.80
2021,06,30,15,52,23.90
2021,06,30,15,53,23.90
2021,06,30,15,54,23.90
2021,06,30,15,55,23.90
2021,06,30,15,56,23.90
2021,06,30,15,57,24.00
2021,06,30,15,58,24.00
2021,06,30,15,59,24.10
2021,06,30,16,00,24.10
2021,06,30,16,01,24.20
2021,06,30,16,02,24.20
2021,06,30,16,03,24.30
2021,06,30,16,04,24.30
2021,06,30,16,05,24.30
2021,06,30,16,06,24.30
2021,06,30,16,07,24.20
2021,06,30,16,08,24.20
2021,06,30,16,09,24.20
2021,06,30,16,10,24.30
2021,06,30,16,11,24.30
2021,06,30,16,12,24.20
2021,06,30,16,13,24.20
2021,06,30,16,14,24.20
2021,06,30,16,15,24.20
2021,06,30,16,16,24.20
2021,06,30,16,17,24.30
2021,06,30,16,18,24.30
2021,06,30,16,19,24.40
2021,06,30,16,20,24.40
2021,06,30,16,21,24.40
2021,06,30,16,22,24.50
2021,06,30,16,23,24.50
2021,06,30,16,24,24.50
2021,06,30,16,25,24.50
2021,06,30,16,26,24.60
2021,06,30,16,27,24.60
2021,06,30,16,28,24.60
2021,06,30,16,29,24.70
2021,06,30,16,30,24.70
2021,06,30,16,31,24.70
2021,06,30,16,32,24.70
2021,06,30,16,33,24.80
2021,06,30,16,34,24.80
2021,06,30,16,35,24.70
2021,06,30,16,36,24.70
2021,06,30,16,37,24.70
2021,06,30,16,38,24.70
2021,06,30,16,39,24.70
2021,06,30,16,40,24.70
2021,06,30,16,41,24.70
2021,06,30,16,42,24.70
2021,06,30,16,43,24.70
2021,06,30,16,44,24.70
2021,06,30,16,45,24.80
2021,06,30,16,46,24.80
2021,06,30,16,47,24.80
2021,06,30,16,48,24.80
2021,06,30,16,49,24.80
2021,06,30,16,50,24.80
2021,06,30,16,51,24.80
2021,06,30,16,52,24.90
2021,06,30,16,53,24.90
2021,06,30,16,54,24.90
2021,06,30,16,55,24.90
2021,06,30,16,56,24.90
2021,06,30,16,57,24.90
2021,06,30,16,58,25.00
2021,06,30,16,59,24.90
2021,06,30,17,00,25.00
2021,06,30,17,01,25.00
2021,06,30,17,02,25.10
2021,06,30,17,03,25.00
2021,06,30,17,04,25.00
2021,06,30,17,05,25.00
2021,06,30,17,06,25.00
2021,06,30,17,07,25.10
2021,06,30,17,08,25.00
2021,06,30,17,09,25.00
2021,06,30,17,10,24.90
2021,06,30,17,11,25.00
2021,06,30,17,12,25.00
2021,06,30,17,13,25.10
2021,06,30,17,14,25.10
2021,06,30,17,15,25.10
2021,06,30,17,16,25.10
2021,06,30,17,17,25.10
2021,06,30,17,18,25.20
2021,06,30,17,19,25.20